Bar Harbor, ME

7:47 PM EDT on July 24, 2017 (GMT -0400)
Hancock County-Bar Harbor

Weather History for KBHB - October, 2012

Change the Weather History Date:

Saturday, October 6, 2012

  Actual Average Record
Temperature  
Mean Temperature 60 °F -  
Max Temperature 66 °F 61 °F 72 °F (1963)
Min Temperature 51 °F 45 °F 26 °F (2004)
Degree Days  
Heating Degree Days 6    
Growing Degree Days 10 (Base 50)    
Moisture  
Dew Point 59 °F    
Average Humidity 95    
Maximum Humidity 100    
Minimum Humidity 82    
Precipitation  
Precipitation 0.18 in - - ()
Sea Level Pressure  
Sea Level Pressure 29.80 in    
Wind  
Wind Speed 11 mph (SSW)    
Max Wind Speed 23 mph    
Max Gust Speed 30 mph    
Visibility 7 miles    
Events      
Averages and records for this station are not official NWS values.
T = Trace of Precipitation, MM = Missing Value Source: NWS Daily Summary

Daily Weather History Graph

Daily Weather History Graph

Search for Another Location

Airport or City:

Trip Planner

Search our weather history database for the weather conditions in past years. The results will help you decide how hot, cold, wet, or windy it might be!

Date:

Astronomy

Oct. 06, 2012 Rise Set
Actual Time 6:37 AM EDT 6:04 PM EDT
Civil Twilight 6:08 AM EDT 6:33 PM EDT
Nautical Twilight 5:35 AM EDT 7:06 PM EDT
Astronomical Twilight 5:01 AM EDT 7:40 PM EDT
Moon 10:06 PM EDT (10/6) 12:40 PM EDT (10/6)
Length of Visible Light 12h 24m
Length of Day
11h 26m
Waning Gibbous, 65% of the Moon is Illuminated
Oct 6
Waning Gibbous
Oct 8
Last Quarter
Oct 15
New
Oct 21
First Quarter
Oct 29
Full

Hourly Weather History & Observations

Time (EDT) Temp. Dew Point Humidity Pressure Visibility Wind Dir Wind Speed Gust Speed Precip Events Conditions
12:15 AM 57.2 °F 57.2 °F 100% 29.91 in 0.8 mi South 13.8 mph - N/A   Overcast
12:35 AM 57.2 °F 55.4 °F 94% 29.91 in 0.8 mi SSW 6.9 mph - N/A   Overcast
12:55 AM 57.2 °F 55.4 °F 94% 29.91 in 0.5 mi SSW 6.9 mph - N/A   Overcast
1:15 AM 57.2 °F 57.2 °F 100% 29.91 in 0.5 mi South 9.2 mph - N/A   Overcast
1:35 AM 57.2 °F 57.2 °F 100% 29.90 in 0.5 mi South 9.2 mph - N/A   Overcast
1:55 AM 57.2 °F 57.2 °F 100% 29.89 in 0.5 mi South 6.9 mph - N/A   Overcast
2:15 AM 59.0 °F 59.0 °F 100% 29.88 in 0.8 mi South 6.9 mph - N/A   Overcast
2:35 AM 59.0 °F 57.2 °F 94% 29.88 in 0.8 mi South 8.1 mph - N/A   Overcast
2:55 AM 59.0 °F 57.2 °F 94% 29.86 in 0.8 mi South 6.9 mph - N/A   Overcast
3:15 AM 59.0 °F 57.2 °F 94% 29.86 in 1.0 mi South 9.2 mph - N/A   Overcast
3:35 AM 59.0 °F 59.0 °F 100% 29.86 in 1.5 mi South 9.2 mph - N/A   Overcast
3:55 AM 59.0 °F 59.0 °F 100% 29.85 in 2.5 mi South 11.5 mph - N/A   Overcast
4:15 AM 60.8 °F 60.8 °F 100% 29.86 in 5.0 mi SSW 8.1 mph - N/A   Overcast
4:35 AM 59.0 °F 57.2 °F 94% 29.85 in 2.5 mi South 11.5 mph - N/A   Overcast
4:55 AM 59.0 °F 57.2 °F 94% 29.85 in 2.0 mi South 5.8 mph - N/A   Overcast
5:35 AM 59.0 °F 59.0 °F 100% 29.85 in 5.0 mi South 6.9 mph - N/A   Overcast
5:55 AM 59.0 °F 59.0 °F 100% 29.85 in 6.0 mi SSW 5.8 mph - N/A   Overcast
6:15 AM 59.0 °F 59.0 °F 100% 29.85 in 7.0 mi South 8.1 mph - N/A   Overcast
6:35 AM 59.0 °F 59.0 °F 100% 29.84 in 6.0 mi South 5.8 mph - N/A   Overcast
6:55 AM 59.0 °F 59.0 °F 100% 29.84 in 5.0 mi South 10.4 mph - N/A   Overcast
7:15 AM 59.0 °F 59.0 °F 100% 29.84 in 6.0 mi South 9.2 mph - N/A   Overcast
7:35 AM 59.0 °F 59.0 °F 100% 29.85 in 5.0 mi SSW 6.9 mph - N/A   Overcast
7:55 AM 59.0 °F 59.0 °F 100% 29.84 in 6.0 mi South 9.2 mph - N/A   Overcast
8:15 AM 59.0 °F 59.0 °F 100% 29.84 in 5.0 mi South 10.4 mph - N/A   Overcast
8:35 AM 60.8 °F 59.0 °F 94% 29.83 in 6.0 mi South 10.4 mph - N/A   Overcast
8:55 AM 60.8 °F 59.0 °F 94% 29.83 in 7.0 mi SSW 10.4 mph - N/A   Overcast
9:15 AM 60.8 °F 60.8 °F 100% 29.83 in 9.0 mi South 9.2 mph - N/A   Overcast
9:35 AM 60.8 °F 60.8 °F 100% 29.83 in 10.0 mi South 12.7 mph - N/A   Overcast
9:55 AM 62.6 °F 60.8 °F 94% 29.83 in 10.0 mi SSW 11.5 mph - N/A   Overcast
10:15 AM 62.6 °F 60.8 °F 94% 29.82 in 10.0 mi South 12.7 mph - N/A   Mostly Cloudy
10:35 AM 64.4 °F 60.8 °F 88% 29.82 in 10.0 mi South 12.7 mph - N/A   Mostly Cloudy
10:55 AM 62.6 °F 60.8 °F 94% 29.82 in 10.0 mi SSW 11.5 mph 17.3 mph N/A   Mostly Cloudy
11:15 AM 62.6 °F 60.8 °F 94% 29.82 in 10.0 mi SSW 18.4 mph - N/A   Mostly Cloudy
11:35 AM 62.6 °F 60.8 °F 94% 29.81 in 10.0 mi SSW 17.3 mph 20.7 mph N/A   Overcast
11:55 AM 60.8 °F 59.0 °F 94% 29.81 in 8.0 mi South 11.5 mph - N/A   Overcast
12:15 PM 60.8 °F 60.8 °F 100% 29.81 in 7.0 mi South 12.7 mph - N/A   Overcast
12:35 PM 60.8 °F 60.8 °F 100% 29.79 in 5.0 mi South 12.7 mph 19.6 mph N/A   Overcast
12:55 PM 60.8 °F 60.8 °F 100% 29.78 in 5.0 mi South 12.7 mph - N/A   Overcast
1:15 PM 62.6 °F 60.8 °F 94% 29.76 in 5.0 mi South 16.1 mph - N/A   Overcast
1:35 PM 62.6 °F 60.8 °F 94% 29.74 in 8.0 mi South 19.6 mph - N/A   Overcast
1:55 PM 66.2 °F 62.6 °F 88% 29.73 in 10.0 mi South 20.7 mph 27.6 mph N/A   Overcast
2:15 PM 66.2 °F 62.6 °F 88% 29.72 in 9.0 mi South 21.9 mph 25.3 mph N/A   Mostly Cloudy
2:35 PM 66.2 °F 62.6 °F 88% 29.72 in 10.0 mi SSW 21.9 mph 26.5 mph N/A   Partly Cloudy
2:55 PM 66.2 °F 62.6 °F 88% 29.71 in 9.0 mi South 23.0 mph 28.8 mph N/A   Clear
3:15 PM 64.4 °F 62.6 °F 94% 29.71 in 10.0 mi South 20.7 mph 27.6 mph N/A   Partly Cloudy
3:35 PM 64.4 °F 62.6 °F 94% 29.71 in 9.0 mi South 17.3 mph 29.9 mph N/A   Partly Cloudy
3:55 PM 64.4 °F 62.6 °F 94% 29.70 in 9.0 mi South 17.3 mph - N/A   Partly Cloudy
4:15 PM 64.4 °F 62.6 °F 94% 29.69 in 9.0 mi South 17.3 mph - N/A   Partly Cloudy
4:35 PM 64.4 °F 62.6 °F 94% 29.69 in 9.0 mi SSW 17.3 mph 24.2 mph N/A   Clear
4:55 PM 64.4 °F 60.8 °F 88% 29.68 in 9.0 mi SSW 17.3 mph 23.0 mph N/A   Clear
5:15 PM 62.6 °F 60.8 °F 94% 29.68 in 9.0 mi SSW 18.4 mph 23.0 mph N/A   Clear
5:35 PM 62.6 °F 60.8 °F 94% 29.68 in 10.0 mi South 15.0 mph - N/A   Clear
5:55 PM 62.6 °F 60.8 °F 94% 29.68 in 9.0 mi SSW 17.3 mph 23.0 mph N/A   Clear
6:15 PM 62.6 °F 60.8 °F 94% 29.68 in 9.0 mi SSW 18.4 mph 25.3 mph N/A   Partly Cloudy
6:35 PM 64.4 °F 60.8 °F 88% 29.68 in 10.0 mi SSW 18.4 mph 25.3 mph N/A   Mostly Cloudy
6:55 PM 64.4 °F 60.8 °F 88% 29.69 in 10.0 mi SSW 21.9 mph 26.5 mph N/A   Overcast
7:15 PM 64.4 °F 60.8 °F 88% 29.70 in 10.0 mi SSW 17.3 mph 28.8 mph N/A   Mostly Cloudy
7:35 PM 64.4 °F 60.8 °F 88% 29.70 in 10.0 mi SSW 11.5 mph 21.9 mph N/A   Mostly Cloudy
7:55 PM 60.8 °F 59.0 °F 94% 29.73 in 6.0 mi WNW 5.8 mph 25.3 mph 0.06 in   Overcast
8:15 PM 57.2 °F 55.4 °F 94% 29.75 in 9.0 mi NW 10.4 mph 19.6 mph 0.09 in   Overcast
8:35 PM 55.4 °F 53.6 °F 94% 29.76 in 10.0 mi NW 8.1 mph 16.1 mph 0.11 in   Overcast
8:55 PM 55.4 °F 53.6 °F 94% 29.76 in 10.0 mi North 3.5 mph - 0.11 in   Overcast
9:15 PM 55.4 °F 55.4 °F 100% 29.77 in 10.0 mi North 4.6 mph - N/A   Overcast
9:35 PM 55.4 °F 53.6 °F 94% 29.78 in 10.0 mi Calm Calm - N/A   Overcast
9:55 PM 55.4 °F 53.6 °F 94% 29.80 in 10.0 mi West 3.5 mph - 0.01 in   Overcast
10:15 PM 53.6 °F 51.8 °F 94% 29.81 in 10.0 mi Calm Calm - N/A   Overcast
10:35 PM 53.6 °F 51.8 °F 94% 29.82 in 10.0 mi WNW 3.5 mph - N/A   Overcast
10:55 PM 53.6 °F 53.6 °F 100% 29.82 in 10.0 mi NW 4.6 mph - N/A   Overcast
11:15 PM 53.6 °F 51.8 °F 94% 29.82 in 10.0 mi WNW 5.8 mph - N/A   Overcast
11:35 PM 53.6 °F 48.2 °F 82% 29.83 in 10.0 mi WNW 4.6 mph - N/A   Overcast
11:55 PM 51.8 °F 48.2 °F 88% 29.83 in 10.0 mi Calm Calm - N/A   Overcast